Regional Weather Roundup
Issued by NWS

Home | Current Version | Previous Version | Graphics & Text | Print | Product List | Glossary On
Versions: 1 2 3 4 5 6 7 8 9 10 11 12 13 14 15 16 17 18 19 20 21 22 23 24 25 26 27 28 29 30 31 32 33 34 35 36 37 38 39 40 41 42 43 44 45 46 47 48 49 50
000
ASUS44 KMEG 281310
RWRTN
TENNESSEE HOURLY STATE WEATHER ROUNDUP
NATIONAL WEATHER SERVICE MEMPHIS TN
800 AM CDT SUN MAY 28 2017

TNZ002-004-019-021-049-052-054-088>092-281400-
WEST TENNESSEE

CITY           SKY/WX    TMP DP  RH WIND       PRES   REMARKS
MEMPHIS INTL   LGT RAIN  64  63  96 S12       29.94F
NWS MEMPHIS      N/A     64 N/A N/A MISG        N/A
JACKSON        LGT RAIN  65  63  93 SW14G24   29.89F
COVINGTON      MOSUNNY   64  63  94 S17G26    29.83F
UNION CITY     CLOUDY    64  63  94 NW6G12    29.89R
BOLIVAR        SUNNY     64  63  94 S6        29.97F
PARIS          PTSUNNY   64  63  94 S10       29.84F
HUNTINGDON     PTSUNNY   64  63  94 SW13G18   29.87F
LEXINGTON      PTSUNNY   64  63  94 MISG      29.93R
SELMER         SUNNY     64  63  94 VRB7G15   29.97F
SAVANNAH       SUNNY     66  64  94 SW13      29.95F
$$

TNZ008-025-027-028-033-062-065-066-281400-
NORTH MIDDLE TENNESSEE

CITY           SKY/WX    TMP DP  RH WIND       PRES   REMARKS
NASHVILLE      CLOUDY    66  63  90 CALM      29.90F
PORTLAND       SUNNY     64  63  94 CALM      29.88F
CLARKSVILLE    PTSUNNY   65  61  87 SW7       29.89R
SMYRNA         CLOUDY    66  63  88 CALM      29.91R
GALLATIN       MOSUNNY   66  63  88 CALM      29.92F
CROSSVILLE     CLOUDY    63  59  87 SW3       29.92R
$$

TNZ061-075-076-078-094-096-097-281400-
SOUTH MIDDLE TENNESSEE

CITY           SKY/WX    TMP DP  RH WIND       PRES   REMARKS
FAYETTEVILLE   CLOUDY    64  64 100 SW12G20   29.97R
TULLAHOMA      CLOUDY    63  63 100 SW14      29.96R
WINCHESTER     PTSUNNY   64  63  94 SE5         N/A
MCMINNVILLE    MOSUNNY   64  64 100 SW12      29.91R
COLUMBIA       SUNNY     66  63  88 SW13G20   29.89F FOG
SHELBYVILLE    PTSUNNY   64  63  94 S13       29.92R
$$

TNZ017-018-042-046-047-281400-
NORTHEAST TENNESSEE

CITY           SKY/WX    TMP DP  RH WIND       PRES   REMARKS
TRI CITIES     CLOUDY    65  61  87 CALM      29.94R
ELIZABETHTON   CLOUDY    66  63  88 CALM      29.94R
$$

TNZ012-013-036-069-073-074-281400-
CENTRAL EAST TENNESSEE

CITY           SKY/WX    TMP DP  RH WIND       PRES   REMARKS
KNOXVILLE      LGT RAIN  64  62  93 S8        29.90R
OAK RIDGE      CLOUDY    65  61  87 CALM      29.91R
DOWNTOWN KNOXV SUNNY     66  63  88 CALM      29.91R
GATLINBURG     MOSUNNY   63  61  94 CALM      29.91R
MORRISTOWN     MOSUNNY   64  63  94 CALM      29.91R
JACKSBORO      CLOUDY    64  63  94 NE3       29.94R
$$

TNZ083-085-099-281400-
SOUTHEAST TENNESSEE

CITY           SKY/WX    TMP DP  RH WIND       PRES   REMARKS
CHATTANOOGA    CLOUDY    65  62  90 S8        29.95R
$$

SKY/WX REPORTED AS FAIR MEANS FEW OR NO CLOUDS BELOW
12 THOUSAND FEET.





USA.gov is the U.S. government's official web portal to all federal, state and local government web resources and services.